When you browse on this site, cookies collect data to enhance your experience and personalize the content and advertising you see.
Visit our Privacy Policy to learn more. By continuing to use the site, you agree to this use of cookies and data.
  • en France
  • Liste des pays
  • À 7 jours
  • Température de l'eau
  • Carte satellitaire
  • Carte météo
  • Widgets météo
  • user-avatar
    Se connecter

    Météo par heure à Belyai

    Ce jour, 19 Février, Mardi

    Heure Température Précipitation Vent Pression Humidité
    00:00 -4°C° 0 mm 4 m/s 756 mmHg 76%
    01:00 -4°C° 0 mm 5 m/s 756 mmHg 78%
    02:00 -4°C° 0 mm 5 m/s 755 mmHg 85%
    03:00 -4°C° 0 mm 5 m/s 754 mmHg 87%
    04:00 -4°C° 0 mm 5 m/s 754 mmHg 88%
    05:00 -4°C° 0 mm 5 m/s 753 mmHg 90%
    06:00 -2°C° 0 mm 5 m/s 753 mmHg 90%
    07:00 -2°C° 0 mm 5 m/s 753 mmHg 90%
    08:00 -1°C° 0 mm 5 m/s 752 mmHg 90%
    09:00 -1°C° 0 mm 5 m/s 752 mmHg 90%
    10:00 0°C° 0 mm 5 m/s 751 mmHg 90%
    11:00 0°C° 0 mm 5 m/s 751 mmHg 89%
    12:00 0°C° 0 mm 5 m/s 750 mmHg 90%
    13:00 +1°C° 0 mm 5 m/s 749 mmHg 90%
    14:00 +1°C° 0 mm 5 m/s 748 mmHg 90%
    15:00 +1°C° 0 mm 5 m/s 748 mmHg 90%
    16:00 +1°C° 0 mm 5 m/s 747 mmHg 90%
    17:00 +1°C° 0 mm 5 m/s 746 mmHg 91%
    18:00 +1°C° 0 mm 5 m/s 746 mmHg 91%
    19:00 +1°C° 0 mm 5 m/s 745 mmHg 91%
    20:00 +1°C° 0 mm 5 m/s 744 mmHg 91%
    21:00 +1°C° 0.2 mm 5 m/s 744 mmHg 91%
    22:00 0°C° 0.2 mm 5 m/s 743 mmHg 91%
    23:00 0°C° 0.2 mm 4 m/s 743 mmHg 91%

    Demain, 20 Février, Mercredi

    Heure Température Précipitation Vent Pression Humidité
    00:00 0°C° 0.2 mm 4 m/s 742 mmHg 92%
    01:00 0°C° 0.2 mm 4 m/s 742 mmHg 92%
    02:00 +1°C° 0.2 mm 4 m/s 742 mmHg 93%
    03:00 0°C° 0.1 mm 4 m/s 742 mmHg 93%
    04:00 0°C° 0.1 mm 4 m/s 742 mmHg 93%
    05:00 0°C° 0.1 mm 4 m/s 741 mmHg 93%
    06:00 0°C° 0.2 mm 4 m/s 741 mmHg 92%
    07:00 +1°C° 0.2 mm 5 m/s 741 mmHg 91%
    08:00 +1°C° 0.2 mm 5 m/s 741 mmHg 91%
    09:00 +1°C° 0 mm 5 m/s 741 mmHg 89%
    10:00 +1°C° 0 mm 5 m/s 741 mmHg 88%
    11:00 +1°C° 0 mm 5 m/s 740 mmHg 87%
    12:00 +1°C° 0.2 mm 5 m/s 740 mmHg 86%
    13:00 +1°C° 0.2 mm 5 m/s 740 mmHg 85%
    14:00 +1°C° 0.2 mm 5 m/s 740 mmHg 84%
    15:00 +1°C° 0.5 mm 5 m/s 740 mmHg 83%
    16:00 -1°C° 0.5 mm 6 m/s 740 mmHg 82%
    17:00 -1°C° 0.5 mm 6 m/s 740 mmHg 81%
    18:00 -2°C° 0.2 mm 6 m/s 741 mmHg 83%
    19:00 -3°C° 0.2 mm 6 m/s 742 mmHg 84%
    20:00 -3°C° 0.2 mm 6 m/s 743 mmHg 86%
    21:00 -4°C° 0.2 mm 6 m/s 743 mmHg 83%
    22:00 -4°C° 0.2 mm 6 m/s 744 mmHg 81%
    23:00 -5°C° 0.2 mm 6 m/s 745 mmHg 78%

    Après-demain, 21 Février, Jeudi

    Heure Température Précipitation Vent Pression Humidité
    00:00 -5°C° 0.1 mm 6 m/s 746 mmHg 77%
    01:00 -6°C° 0.1 mm 6 m/s 746 mmHg 76%
    02:00 -7°C° 0.1 mm 7 m/s 747 mmHg 75%
    03:00 -8°C° 0.1 mm 7 m/s 748 mmHg 73%
    04:00 -8°C° 0.1 mm 7 m/s 748 mmHg 71%
    05:00 -9°C° 0.1 mm 7 m/s 749 mmHg 70%
    06:00 -9°C° 0.1 mm 7 m/s 750 mmHg 70%
    07:00 -8°C° 0.1 mm 7 m/s 750 mmHg 71%
    08:00 -8°C° 0.1 mm 7 m/s 751 mmHg 71%
    09:00 -8°C° 0 mm 6 m/s 752 mmHg 69%
    10:00 -8°C° 0 mm 6 m/s 752 mmHg 67%
    11:00 -8°C° 0 mm 6 m/s 753 mmHg 65%
    12:00 -8°C° 0 mm 6 m/s 754 mmHg 64%
    13:00 -7°C° 0 mm 5 m/s 754 mmHg 63%
    14:00 -7°C° 0 mm 5 m/s 755 mmHg 63%
    15:00 -7°C° 0 mm 5 m/s 756 mmHg 64%
    16:00 -8°C° 0 mm 5 m/s 756 mmHg 65%
    17:00 -8°C° 0 mm 4 m/s 757 mmHg 66%
    18:00 -8°C° 0 mm 4 m/s 758 mmHg 66%
    19:00 -10°C° 0 mm 5 m/s 759 mmHg 66%
    20:00 -10°C° 0 mm 5 m/s 760 mmHg 67%
    21:00 -9°C° 0 mm 4 m/s 760 mmHg 67%
    22:00 -10°C° 0 mm 4 m/s 761 mmHg 68%
    23:00 -10°C° 0 mm 4 m/s 761 mmHg 68%

    22 Février, Vendredi

    Heure Température Précipitation Vent Pression Humidité
    00:00 -10°C° 0 mm 4 m/s 762 mmHg 70%
    01:00 -10°C° 0 mm 3 m/s 763 mmHg 72%
    02:00 -10°C° 0 mm 3 m/s 764 mmHg 73%
    03:00 -10°C° 0 mm 3 m/s 764 mmHg 75%
    04:00 -10°C° 0 mm 3 m/s 765 mmHg 76%
    05:00 -10°C° 0 mm 3 m/s 765 mmHg 78%
    06:00 -10°C° 0 mm 3 m/s 766 mmHg 78%
    07:00 -12°C° 0 mm 3 m/s 766 mmHg 77%
    08:00 -12°C° 0 mm 3 m/s 767 mmHg 77%
    09:00 -11°C° 0 mm 4 m/s 767 mmHg 72%
    10:00 -10°C° 0 mm 4 m/s 767 mmHg 67%
    11:00 -10°C° 0 mm 5 m/s 767 mmHg 61%
    12:00 -8°C° 0 mm 5 m/s 767 mmHg 60%
    13:00 -8°C° 0 mm 5 m/s 767 mmHg 58%
    14:00 -8°C° 0 mm 6 m/s 767 mmHg 56%
    15:00 -9°C° 0 mm 6 m/s 767 mmHg 61%
    16:00 -8°C° 0 mm 5 m/s 767 mmHg 65%
    17:00 -8°C° 0 mm 5 m/s 768 mmHg 70%
    18:00 -10°C° 0 mm 5 m/s 768 mmHg 71%
    19:00 -9°C° 0 mm 4 m/s 769 mmHg 71%
    20:00 -10°C° 0 mm 4 m/s 769 mmHg 72%
    21:00 -10°C° 0 mm 4 m/s 770 mmHg 74%
    22:00 -10°C° 0 mm 3 m/s 770 mmHg 76%
    23:00 -10°C° 0 mm 3 m/s 770 mmHg 78%

    23 Février, Samedi

    Heure Température Précipitation Vent Pression Humidité
    00:00 -10°C° 0 mm 3 m/s 770 mmHg 79%
    01:00 -10°C° 0 mm 2 m/s 771 mmHg 80%
    02:00 -10°C° 0 mm 2 m/s 771 mmHg 82%
    03:00 -10°C° 0 mm 2 m/s 771 mmHg 82%
    04:00 -9°C° 0 mm 1 m/s 771 mmHg 83%
    05:00 -9°C° 0 mm 1 m/s 770 mmHg 84%
    06:00 -9°C° 0 mm 1 m/s 771 mmHg 82%
    07:00 -9°C° 0 mm 1 m/s 771 mmHg 80%
    08:00 -9°C° 0 mm 1 m/s 771 mmHg 77%
    09:00 -8°C° 0 mm 1 m/s 770 mmHg 70%
    10:00 -7°C° 0 mm 1 m/s 770 mmHg 63%
    11:00 -6°C° 0 mm 1 m/s 770 mmHg 56%
    12:00 -6°C° 0 mm 1 m/s 770 mmHg 55%
    13:00 -4°C° 0 mm 1 m/s 770 mmHg 54%
    14:00 -6°C° 0 mm 2 m/s 769 mmHg 53%
    15:00 -6°C° 0 mm 2 m/s 769 mmHg 60%
    16:00 -6°C° 0 mm 2 m/s 769 mmHg 67%
    17:00 -6°C° 0 mm 2 m/s 769 mmHg 73%
    18:00 -6°C° 0 mm 2 m/s 769 mmHg 77%
    19:00 -7°C° 0 mm 2 m/s 769 mmHg 82%
    20:00 -7°C° 0 mm 2 m/s 769 mmHg 86%
    21:00 -6°C° 0 mm 2 m/s 769 mmHg 87%
    22:00 -6°C° 0 mm 2 m/s 769 mmHg 88%
    23:00 -6°C° 0 mm 2 m/s 769 mmHg 89%

    24 Février, Dimanche

    Heure Température Précipitation Vent Pression Humidité
    00:00 -6°C° 0 mm 2 m/s 769 mmHg 90%
    01:00 -6°C° 0 mm 2 m/s 769 mmHg 91%
    02:00 -6°C° 0 mm 2 m/s 770 mmHg 92%
    03:00 -5°C° 0 mm 2 m/s 769 mmHg 92%
    04:00 -5°C° 0 mm 2 m/s 769 mmHg 92%
    05:00 -5°C° 0 mm 2 m/s 769 mmHg 93%
    06:00 -5°C° 0 mm 2 m/s 769 mmHg 93%
    07:00 -5°C° 0 mm 2 m/s 769 mmHg 93%
    08:00 -4°C° 0 mm 2 m/s 769 mmHg 93%
    09:00 -4°C° 0 mm 2 m/s 769 mmHg 91%
    10:00 -3°C° 0 mm 2 m/s 769 mmHg 89%
    11:00 -2°C° 0 mm 3 m/s 769 mmHg 87%
    12:00 -2°C° 0 mm 3 m/s 769 mmHg 87%
    13:00 -1°C° 0 mm 3 m/s 768 mmHg 86%
    14:00 -1°C° 0 mm 3 m/s 768 mmHg 86%
    15:00 -1°C° 0 mm 3 m/s 768 mmHg 87%
    16:00 -1°C° 0 mm 3 m/s 767 mmHg 88%
    17:00 -1°C° 0 mm 3 m/s 767 mmHg 89%
    18:00 -1°C° 0 mm 3 m/s 767 mmHg 91%
    19:00 -1°C° 0 mm 3 m/s 766 mmHg 92%
    20:00 -1°C° 0 mm 3 m/s 766 mmHg 93%
    21:00 -2°C° 0 mm 4 m/s 765 mmHg 93%
    22:00 -2°C° 0 mm 4 m/s 765 mmHg 93%
    23:00 -1°C° 0 mm 4 m/s 764 mmHg 93%
    Voir plus